User: anonymous   Login
Location: Plymouth
(43.7570°N, 71.6890°W)
Time: 14:36:08
(UTC-04:00)
Language:

Meteor 1-28 Rocket - Orbit

View from above orbital plane
View from above orbital plane
View from above satellite
View from above satellite

Ground track
Ground track

The orbit data is extracted from the following two-line orbital elements,

1 10114U 77057B   18141.16105464  .00000207  00000-0  13637-4 0  9998
2 10114  97.2197 311.8977 0012972 211.8263 148.2189 15.17033808234798
Epoch (UTC): 21 May 2018 03:51:55
Eccentricity: 0.0012972
inclination: 97.2197°
perigee height: 506 km
apogee height: 524 km
right ascension of ascending node: 311.8977°
argument of perigee: 211.8263°
revolutions per day: 15.17033808
mean anomaly at epoch: 148.2189°
orbit number at epoch: 23479

The dashed part of the orbit path shows where the satellite is in the earth's shadow,  

DLR